sat.trackr.live / text

‹ back to catalog

STARLINK-31329

NORAD 59169 · 2024-044T

PAYLOAD ACTIVE UNKNOWN

§ Identity

Operator
Country
US
Launch date
2024-03-04
Launch site
AFETR
Launch vehicle
Mass (kg)
RCS (m²)

Purposes: comms

External: N2YO · Heavens-Above · Gunter

§ Orbital elements

Epoch: 2026-09-19T21:23:40.795296Z

Period
94.27 min
Inclination
43.0044°
Eccentricity
0.0001131
Mean motion
15.27573101 rev/d
Perigee alt
482.3 km
Apogee alt
483.8 km
Semi-major
6,861.2 km
B*
-2.7839e-5
RAAN
90.4969°
Arg perigee
275.0549°
Mean anomaly
85.0174°
Rev number
14,326

§ Raw data

STARLINK-313291 59169U 24044T   26262.89144439 -.00001028  00000+0 -27839-4 0  99992 59169  43.0044  90.4969 0001131 275.0549  85.0174 15.27573101143265

JSON: /api/v1/satellites/59169 · /tle

For live sub-satellite position, see the globe view (requires WebGL).

§ Visibility from observer

Set your observer location to see the next 7 days of passes ≥ 10°. The values pass through the URL so the page stays shareable.

No JS? Fill the form by hand. The geolocation button needs JavaScript.